RH
81 81 72 84 60 21 14 10 9 9 7 11 21 30 34 32 32 27 27 25 24 21 18 15 13 14 16 18 21 25 34 32 35 20 28 18 21 18 13 10 11 13 12 10 14
77 79 82 80 76 56 13 11 10 8 9 16 30 37 38 33 32 30 28 29 26 24 21 19 15 13 12 12 13 15 18 22 11 11 11 12 12 13 10 9 9 9 10 14 15
80 78 87 78 85 53 15 12 10 8 11 20 39 43 41 34 35 31 31 31 31 28 25 22 18 16 12 11 11 10 17 10 12 12 12 12 11 10 9 11 10 13 16 14 14
76 80 87 71 80 68 16 13 12 10 13 23 43 49 46 36 37 34 33 33 37 32 28 24 20 17 16 13 13 11 11 11 12 11 10 10 8 12 18 16 15 15 15 15 13
77 85 75 57 70 59 31 16 14 12 14 30 46 52 49 43 35 34 34 35 36 38 32 30 25 20 18 15 13 12 11 11 12 11 10 10 21 21 17 14 15 15 14 12 14
74 86 79 58 57 42 34 23 15 13 17 34 50 52 48 47 39 36 37 35 36 37 38 35 30 24 17 15 13 12 12 12 11 11 11 15 22 21 16 14 17 14 14 14 13
64 71 71 70 46 22 44 30 34 20 19 38 55 54 49 44 44 40 39 41 40 40 38 34 31 26 18 15 13 13 12 13 13 15 17 20 22 12 13 16 16 17 16 14 13
28 46 76 55 35 48 33 24 29 22 21 33 51 58 52 44 47 43 41 41 41 40 38 35 34 28 22 15 14 15 13 22 22 24 22 19 19 13 16 18 20 19 17 16 15
56 59 73 51 39 22 27 48 22 18 19 28 43 53 56 48 51 46 45 44 44 42 41 39 35 29 20 15 21 15 20 23 19 16 17 15 18 18 21 22 22 20 18 17 17
52 52 37 30 25 31 26 27 26 28 22 38 39 46 40 45 50 51 49 48 46 46 45 40 34 24 18 17 18 22 24 21 19 20 20 19 19 20 17 20 22 21 20 20 20
50 26 15 18 24 28 27 26 24 22 18 24 33 32 37 36 40 48 51 50 48 44 43 38 30 27 25 18 18 20 21 24 22 21 21 21 18 16 18 22 23 22 21 22 22
27 18 22 14 18 28 34 22 22 26 29 25 37 41 44 39 41 44 41 42 43 42 38 30 24 24 16 18 19 22 22 27 22 22 22 20 19 23 25 26 24 23 23 23 23
18 24 70 14 17 26 30 24 24 33 42 37 33 38 43 42 44 42 40 37 35 31 25 28 25 19 19 18 20 20 22 26 25 24 22 19 25 28 29 26 24 24 25 25 25
25 28 21 16 21 27 26 31 43 51 47 33 28 35 38 45 45 42 37 37 32 32 27 26 23 20 22 20 22 24 20 23 26 26 24 20 17 30 30 27 25 26 27 28 28
31 30 24 17 21 24 32 35 52 54 33 22 26 26 29 40 38 36 39 38 34 30 27 26 20 24 27 26 27 30 26 26 27 30 28 30 27 28 30 29 26 27 28 29 30
33 31 27 20 20 30 37 39 49 41 33 23 26 26 25 31 36 30 33 39 38 35 32 31 28 24 28 30 29 28 29 29 29 32 30 31 32 29 29 30 25 28 30 31 31
35 33 29 22 21 27 37 44 47 37 21 25 31 29 28 29 34 32 26 33 35 39 39 34 29 25 22 26 24 26 29 25 23 32 23 33 35 26 26 28 28 26 30 32 33
36 35 31 26 22 25 31 39 38 26 22 28 31 32 32 33 34 33 31 31 30 29 26 36 28 21 22 24 28 29 34 22 20 18 21 28 29 26 24 24 29 32 34 35 35
44 37 34 30 22 26 31 49 31 23 23 24 34 37 38 37 35 33 34 31 27 25 30 31 30 27 29 28 30 32 33 27 26 28 31 26 26 22 20 23 29 33 34 38 38
43 39 36 34 25 30 44 47 33 28 23 24 31 32 32 30 31 30 28 26 26 24 23 29 30 29 30 33 32 33 28 29 28 27 27 25 29 22 19 20 24 28 35 39 40
39 39 39 36 29 35 62 58 32 31 27 29 29 33 33 30 29 27 28 29 27 23 27 27 31 32 33 32 32 31 34 31 29 30 24 24 20 21 20 24 23 26 32 38 39
37 44 41 41 41 43 75 45 36 36 32 39 39 37 34 32 30 30 33 28 27 30 28 31 35 36 35 28 26 25 32 32 28 30 37 35 25 23 25 27 28 29 30 35 37
42 42 45 39 46 40 51 38 42 44 36 38 37 36 38 31 33 34 34 33 28 28 32 32 38 34 32 32 30 30 29 29 30 31 32 28 23 26 28 29 32 34 32 33 35
48 52 46 42 49 42 40 34 44 46 43 37 36 37 36 33 32 30 32 33 33 32 32 34 34 28 21 23 25 27 27 30 32 35 31 34 27 27 30 30 32 35 36 36 37
49 50 38 46 44 46 42 37 32 44 45 38 39 34 33 36 35 33 29 28 29 32 34 37 36 32 31 32 32 33 34 35 36 33 36 28 30 32 38 38 39 39 40 41 40
47 52 40 43 40 45 41 34 31 34 40 42 36 31 32 33 32 30 29 29 28 27 28 31 40 32 32 32 34 37 36 38 36 33 40 30 31 33 38 37 49 46 47 47 48
52 53 46 42 39 46 33 29 28 34 38 39 37 41 41 36 36 34 36 33 32 31 32 35 36 37 39 39 41 51 28 25 25 26 29 40 34 27 27 26 40 58 55 52 55
Wind_Speed
24 30 27 15 11 8 11 12 11 13 14 16 18 18 17 16 14 11 8 6 4 4 3 3 3 3 4 6 8 9 8 8 9 10 10 14 15 16 17 16 14 15 17 17 14
15 19 25 22 11 15 12 12 11 14 16 18 19 19 17 17 15 12 10 7 5 3 3 2 1 1 3 5 5 7 8 8 8 9 11 13 14 15 15 13 12 14 15 14 12
18 21 16 23 26 14 14 13 12 14 17 20 20 19 18 17 15 14 11 8 5 4 3 2 1 1 2 3 5 6 7 9 9 11 13 13 14 13 11 9 14 13 14 14 14
19 21 11 11 23 18 15 16 12 14 18 20 21 20 19 18 12 16 12 10 7 6 4 3 3 3 4 5 6 6 5 9 10 12 12 13 12 11 6 10 12 14 14 13 16
18 22 13 14 17 18 15 15 13 15 19 21 21 20 20 19 17 12 15 13 10 8 6 6 5 6 5 6 8 9 6 7 11 11 12 11 7 7 9 12 13 14 15 15 14
13 11 11 14 15 16 16 17 16 15 19 22 21 21 22 21 20 12 12 16 13 12 9 8 8 8 10 8 8 8 10 8 11 13 12 9 9 10 11 12 12 14 15 11 10
24 11 17 15 16 19 19 17 15 14 19 22 22 22 23 21 19 19 14 13 15 13 11 10 10 10 11 10 9 7 11 12 10 7 8 9 12 8 10 9 11 10 6 3 1
33 26 13 16 20 20 20 16 21 17 21 22 23 24 23 22 20 19 18 17 16 15 15 14 13 13 11 10 11 11 11 4 6 6 8 9 8 10 10 10 7 3 4 6 7
30 27 23 24 21 19 24 21 20 19 20 22 23 25 25 24 23 19 17 17 17 17 16 15 15 15 12 10 9 8 6 7 7 8 10 9 9 14 10 10 8 8 8 8 8
28 26 27 25 20 21 19 19 19 20 22 23 23 20 23 24 24 22 21 19 19 18 18 17 17 15 10 9 6 5 6 9 7 8 13 13 9 15 16 14 15 13 11 8 5
29 25 24 23 21 19 19 20 20 24 27 25 13 26 6 24 19 29 24 22 22 21 20 18 15 11 8 12 13 12 10 11 8 12 7 7 11 14 14 17 21 18 14 10 5
28 25 21 24 21 18 17 19 18 15 19 22 23 13 23 8 22 17 21 24 25 23 21 17 17 12 14 16 14 11 11 11 11 7 10 9 12 9 11 24 24 20 16 11 6
27 24 24 23 21 19 14 12 16 17 14 17 23 24 16 25 18 19 16 17 18 18 16 14 10 10 13 8 9 10 11 11 13 11 11 8 6 9 19 23 23 20 16 12 8
27 25 25 25 21 19 13 16 14 11 8 14 24 26 28 24 22 21 17 17 17 16 15 13 17 17 16 15 15 12 9 10 11 6 6 4 2 15 23 25 24 21 18 14 11
29 27 23 23 19 17 15 15 13 11 5 5 16 20 29 31 23 29 25 22 21 18 16 9 8 6 6 6 6 6 5 9 11 11 12 9 6 10 26 29 28 25 21 18 14
30 27 26 24 21 18 18 16 15 7 8 6 11 16 20 28 31 19 26 29 25 23 23 20 19 12 11 7 7 5 7 12 13 9 7 6 7 9 26 29 30 28 24 20 16
30 28 26 24 21 20 21 21 12 9 6 7 11 16 19 26 26 25 17 24 22 15 20 22 26 21 20 17 16 13 8 4 4 5 2 4 5 7 13 20 28 28 25 21 18
30 30 27 25 25 25 24 25 10 11 15 7 11 14 17 18 24 23 20 19 20 19 8 13 7 17 15 19 10 9 12 6 4 2 1 5 6 4 11 15 23 29 24 23 20
35 32 28 28 28 28 29 26 16 11 13 11 10 14 16 19 13 21 22 22 19 18 11 10 6 8 7 9 12 8 10 11 4 6 4 4 7 10 11 13 18 25 28 24 21
38 33 30 29 30 31 34 25 21 19 9 15 12 11 14 17 16 16 14 11 18 13 19 8 3 8 10 9 12 12 7 3 5 3 4 4 7 10 8 10 17 22 27 26 22
35 35 32 32 32 35 38 26 28 16 17 12 13 11 10 15 17 16 9 7 13 18 18 17 9 6 11 11 13 15 16 12 9 5 3 4 5 7 8 6 9 16 25 27 24
38 37 38 38 38 42 38 36 31 26 17 13 13 14 11 11 15 14 11 6 9 9 18 19 9 6 10 11 13 15 15 14 10 5 7 3 13 19 19 14 11 16 24 28 27
39 38 35 41 44 44 36 39 35 26 29 17 12 12 12 11 8 14 11 10 8 10 9 14 10 5 3 11 17 18 19 18 18 17 15 8 9 9 10 14 16 18 21 28 30
38 36 34 44 43 41 43 38 38 30 29 25 20 13 12 13 13 9 11 11 12 12 11 11 14 11 11 4 4 8 11 13 17 15 16 25 24 24 23 21 23 24 24 30 33
41 35 42 46 50 42 36 34 36 35 29 24 25 24 21 18 15 13 10 10 10 13 15 17 17 18 20 20 20 21 20 21 24 26 23 30 27 27 26 30 27 28 30 32 35
46 34 42 38 41 44 37 36 34 32 31 31 28 22 23 24 22 15 18 19 18 17 20 20 14 18 21 21 22 27 25 27 29 32 33 36 37 28 31 29 29 33 33 34 34
46 43 32 36 33 33 42 34 32 30 25 27 25 23 26 24 20 20 21 23 21 16 18 21 21 18 15 15 19 19 30 28 29 28 25 28 25 24 23 22 19 25 29 31 29
Wind_Direction
229 240 250 266 266 272 264 257 245 232 216 198 188 183 178 177 172 174 169 164 157 144 122 121 142 173 188 203 214 226 234 246 249 269 257 266 268 276 281 289 292 286 275 288 298
248 256 234 245 265 269 272 252 240 235 212 198 190 187 184 184 178 186 179 179 180 175 151 117 163 190 207 219 224 231 243 256 260 265 265 275 281 284 289 293 284 278 289 293 295
249 247 251 248 243 264 267 251 234 232 212 199 192 192 190 189 189 193 189 189 195 207 204 217 259 269 252 236 240 250 259 266 270 273 276 281 283 283 281 282 284 278 276 285 293
247 247 238 257 241 258 266 244 235 225 213 203 196 197 197 195 192 206 202 200 208 218 235 251 286 286 283 270 263 272 264 268 273 270 276 278 282 279 251 273 272 275 276 282 295
254 239 232 248 239 238 263 250 236 222 211 204 201 202 203 203 201 205 208 209 222 237 251 269 290 294 285 278 271 274 265 267 271 268 269 275 259 262 272 273 271 279 287 299 299
236 227 249 251 239 235 254 254 230 228 213 207 206 209 211 211 207 208 211 218 226 239 259 275 291 292 290 289 271 272 278 274 272 273 266 259 259 276 271 260 272 291 305 307 301
225 232 254 249 249 233 234 244 246 223 219 212 209 213 218 210 215 218 219 214 223 236 257 273 287 296 295 288 275 269 284 284 279 260 221 257 276 261 240 257 276 305 306 301 317
232 228 241 266 229 220 232 236 240 230 220 217 215 219 220 212 219 218 219 225 233 246 260 269 282 288 287 279 278 288 289 253 223 235 253 265 263 243 240 257 278 235 147 117 100
222 217 237 249 250 223 215 225 232 231 227 221 220 224 224 215 219 217 217 225 237 247 257 269 281 283 277 270 282 281 262 253 270 254 266 253 259 260 226 257 231 191 165 142 116
233 233 230 243 239 208 232 229 227 224 219 217 220 227 224 226 220 222 225 231 240 251 262 270 278 277 262 252 258 251 256 272 263 270 275 274 254 256 256 239 212 189 176 158 139
231 231 227 230 237 229 220 217 229 222 220 215 220 226 232 221 221 224 227 235 243 249 257 266 263 249 250 258 256 267 264 275 273 290 278 255 271 273 261 212 191 186 183 185 185
223 216 229 225 229 227 224 220 219 230 231 221 217 214 216 206 217 213 219 229 239 245 253 251 252 259 268 262 255 253 267 279 289 277 283 271 287 278 198 181 182 187 193 200 208
218 212 218 225 220 222 216 208 209 215 237 231 227 218 211 219 217 207 219 227 232 234 236 233 238 255 270 265 244 245 255 271 278 287 281 280 276 207 182 180 186 191 199 207 215
216 211 209 218 213 209 200 192 195 213 251 252 227 226 217 220 229 222 217 224 232 230 234 247 256 261 256 257 256 259 271 260 264 277 264 228 261 206 189 189 193 199 204 211 220
212 209 210 214 213 207 188 186 187 204 260 226 210 209 216 212 227 227 225 227 232 235 227 231 240 244 230 217 217 228 255 266 271 269 277 264 226 193 200 202 203 206 208 215 225
207 206 207 211 203 193 187 182 180 191 246 221 200 204 202 207 220 227 219 224 230 234 242 241 248 248 233 221 230 260 281 288 277 261 245 211 214 216 207 211 209 211 211 219 230
208 207 207 206 199 194 189 181 175 218 233 218 204 198 194 202 207 216 214 211 218 213 239 246 244 245 239 246 256 264 259 263 222 211 302 210 218 256 220 219 220 222 219 224 233
213 210 205 201 194 195 190 183 199 224 222 210 199 192 195 201 209 213 214 213 220 225 237 206 220 226 235 231 231 237 209 251 281 268 72 238 245 248 228 222 220 216 221 227 234
212 207 203 201 194 194 189 191 208 219 221 217 189 189 197 204 208 213 220 227 226 221 193 192 212 200 209 209 204 226 215 230 238 277 266 231 268 257 236 232 223 217 221 225 234
205 205 204 200 197 195 195 202 206 218 216 209 205 204 207 202 201 198 210 226 216 208 202 202 157 199 206 202 205 212 213 217 222 252 248 221 258 231 242 247 234 223 219 224 230
203 198 199 198 199 201 204 208 208 214 217 210 210 207 202 206 203 200 192 205 197 211 202 210 195 207 210 219 223 223 229 228 231 229 276 292 260 255 233 281 243 240 230 228 235
198 199 193 200 195 207 206 209 213 214 211 208 210 208 204 202 205 203 203 183 190 189 207 209 204 210 223 236 225 226 230 230 235 214 224 269 276 272 266 268 235 242 245 240 244
196 199 195 203 203 210 210 215 218 217 217 211 207 206 207 201 197 206 206 207 187 186 184 196 209 193 251 247 242 237 241 240 243 251 241 250 262 274 243 239 241 252 263 253 253
196 194 196 205 208 218 212 217 218 222 222 222 228 208 205 201 200 195 210 210 213 211 213 205 216 223 254 270 241 226 243 252 244 246 252 243 269 276 268 268 263 264 260 254 254
194 202 205 207 207 213 216 221 224 224 225 225 227 227 229 225 217 215 215 219 216 221 224 227 231 244 258 264 265 264 262 262 254 261 249 272 274 281 273 276 274 265 258 259 257
197 200 206 211 217 213 214 218 223 225 229 226 231 234 235 237 240 243 248 245 242 240 239 238 241 249 257 262 265 265 264 260 263 265 262 276 281 293 283 281 262 251 254 254 256
203 202 209 213 215 211 218 218 220 226 231 234 238 242 244 247 250 246 242 240 248 246 238 240 240 246 258 265 271 273 266 264 268 269 274 270 298 291 285 288 264 240 247 252 259